Tracking 19794 objects as of 22-Jul-2019
HD Live streaming from Space Station
objects crossing your sky now

FLOCK 2K 14

Track FLOCK 2K 14 now!
10-day predictions
FLOCK 2K 14 is classified as:


NORAD ID: 42892
Int'l Code: 2017-042BV
Perigee: 444.5 km
Apogee: 462.6 km
Inclination: 96.9 °
Period: 93.5 minutes
Semi major axis: 6824 km
RCS: Unknown
Launch date: July 14, 2017
Source: United States (US)
Launch site: TYURATAM MISSILE AND SPACE COMPLEX (TTMTR)
aabbcc
Your satellite tracking list
Your tracking list is empty




NASA's NSSDC Master Catalog

Two Line Element Set (TLE):
1 42892U 17042BV  19203.46166201  .00003228  00000-0  82883-4 0  9998
2 42892  96.9353  84.5431 0013299  85.9770 274.2997 15.39900214113174
Source of the keplerian elements: AFSPC